MLISHS1 KCOS-KBWI

Flight info

Callsign MLISHS1
Flight time N/A
Altitude 27000
Route COS6 HGO J24 MCI J80 AIR EMI7
Aircraft F16/M-VRDW/C

Departure

Time 2026-05-06 21:28
Airport City of Colorado Springs Municipal Airport (KCOS)

Arrival

Time N/A
Airport Baltimore/Washington International Thurgood Marshall Airport (KBWI)
Time Latitude Longitude Altitude Speed Heading
2026-05-06 21:16 38.77843 -104.69029 6192 ft 0 kts 90°
2026-05-06 21:25 38.77843 -104.69023 6192 ft 2 kts 85°
2026-05-06 21:26 38.77860 -104.68986 6192 ft 7 kts 34°
2026-05-06 21:26 38.77910 -104.68962 6192 ft 9 kts 56°
2026-05-06 21:26 38.77916 -104.68869 6192 ft 11 kts 91°
2026-05-06 21:26 38.77914 -104.68755 6192 ft 13 kts 89°
2026-05-06 21:27 38.77913 -104.68703 6192 ft 7 kts 91°
2026-05-06 21:27 38.77916 -104.68600 6192 ft 13 kts 84°
2026-05-06 21:27 38.77943 -104.68579 6192 ft 0 kts 357°
2026-05-06 21:27 38.77944 -104.68579 6192 ft 1 kts 357°
2026-05-06 21:28 38.78937 -104.68578 6250 ft 290 kts
2026-05-06 21:28 38.81967 -104.68572 7264 ft 514 kts 359°
2026-05-06 21:28 38.84398 -104.68108 11015 ft 487 kts
2026-05-06 21:28 38.87980 -104.66401 9881 ft 608 kts 38°
2026-05-06 21:29 38.89878 -104.61947 12051 ft 583 kts 87°
2026-05-06 21:29 38.89640 -104.57162 16491 ft 541 kts 94°
2026-05-06 21:29 38.89253 -104.52753 20522 ft 516 kts 95°
2026-05-06 21:29 38.88811 -104.48396 24442 ft 515 kts 95°
2026-05-06 21:30 38.88340 -104.43775 26301 ft 537 kts 95°
2026-05-06 21:30 38.87846 -104.38958 26919 ft 564 kts 95°
2026-05-06 21:30 38.87330 -104.33818 27184 ft 594 kts 96°
2026-05-06 21:30 38.86805 -104.28590 27158 ft 574 kts 96°
2026-05-06 21:31 38.86314 -104.23669 27170 ft 554 kts 96°
2026-05-06 21:31 38.85813 -104.18700 27173 ft 557 kts 96°
2026-05-06 21:31 38.85326 -104.13783 27182 ft 557 kts 95°
2026-05-06 21:31 38.84893 -104.08852 27178 ft 557 kts 94°
2026-05-06 21:32 38.84469 -104.03909 27173 ft 555 kts 95°
2026-05-06 21:32 38.83576 -103.94115 27181 ft 552 kts 94°
2026-05-06 21:32 38.83179 -103.89210 27181 ft 550 kts 94°
2026-05-06 21:33 38.82813 -103.84354 27175 ft 548 kts 94°
2026-05-06 21:33 38.82439 -103.79536 27180 ft 546 kts 93°
2026-05-06 21:33 38.82135 -103.74651 27186 ft 544 kts 91°
2026-05-06 21:33 38.81892 -103.69799 27180 ft 543 kts 91°
2026-05-06 21:34 38.81661 -103.65021 27175 ft 541 kts 91°
2026-05-06 21:34 38.81479 -103.60229 27198 ft 538 kts 89°
2026-05-06 21:34 38.81432 -103.55426 27179 ft 537 kts 87°
2026-05-06 21:34 38.81480 -103.50623 27176 ft 535 kts 85°
2026-05-06 21:35 38.81560 -103.45847 27176 ft 534 kts 86°
2026-05-06 21:35 38.81611 -103.41071 27176 ft 533 kts 86°
2026-05-06 21:35 38.81668 -103.36378 27176 ft 531 kts 85°
2026-05-06 21:35 38.81808 -103.31596 27172 ft 529 kts 85°
2026-05-06 21:36 38.82008 -103.26909 27171 ft 528 kts 84°
2026-05-06 21:36 38.82216 -103.22198 27171 ft 527 kts 84°
2026-05-06 21:36 38.82406 -103.17545 27171 ft 526 kts 86°
2026-05-06 21:36 38.82436 -103.12891 27173 ft 525 kts 88°
2026-05-06 21:37 38.82368 -103.08164 27174 ft 524 kts 88°
2026-05-06 21:37 38.82338 -103.03516 27175 ft 522 kts 88°
2026-05-06 21:37 38.82314 -102.98842 27177 ft 521 kts 88°
2026-05-06 21:37 38.82278 -102.94235 27178 ft 520 kts 88°
2026-05-06 21:38 38.82215 -102.89572 27179 ft 519 kts 89°
2026-05-06 21:38 38.82153 -102.85001 27180 ft 518 kts 88°
2026-05-06 21:38 38.82142 -102.80393 27180 ft 517 kts 87°
2026-05-06 21:38 38.82133 -102.75773 27181 ft 515 kts 87°
2026-05-06 21:39 38.82122 -102.71159 27181 ft 514 kts 87°
2026-05-06 21:39 38.82106 -102.66621 27181 ft 513 kts 87°
2026-05-06 21:39 38.82066 -102.62038 27180 ft 512 kts 87°
2026-05-06 21:39 38.82078 -102.57482 27179 ft 511 kts 86°
2026-05-06 21:40 38.82116 -102.52927 27178 ft 510 kts 86°
2026-05-06 21:40 38.82148 -102.48372 27177 ft 509 kts 86°
2026-05-06 21:40 38.82172 -102.43828 27177 ft 508 kts 86°
2026-05-06 21:40 38.82204 -102.39304 27177 ft 507 kts 86°
2026-05-06 21:41 38.82228 -102.34794 27177 ft 506 kts 87°
2026-05-06 21:41 38.82266 -102.30287 27170 ft 505 kts 86°
2026-05-06 21:41 38.82357 -102.25803 27170 ft 503 kts 85°
2026-05-06 21:41 38.82452 -102.21351 27170 ft 502 kts 85°
2026-05-06 21:42 38.82529 -102.16873 27170 ft 501 kts 86°
2026-05-06 21:42 38.82638 -102.12399 27171 ft 499 kts 84°
2026-05-06 21:42 38.82802 -102.07994 27171 ft 497 kts 84°
2026-05-06 21:42 38.82972 -102.03557 27172 ft 496 kts 84°
2026-05-06 21:43 38.83135 -101.99114 27172 ft 495 kts 83°
2026-05-06 21:43 38.83376 -101.94736 27171 ft 493 kts 82°
2026-05-06 21:43 38.83659 -101.90334 27170 ft 492 kts 82°
2026-05-06 21:43 38.83952 -101.86027 27168 ft 490 kts 82°
2026-05-06 21:44 38.84237 -101.81634 27167 ft 489 kts 82°
2026-05-06 21:44 38.84376 -101.77322 27194 ft 489 kts 91°
2026-05-06 21:44 38.84227 -101.72961 27169 ft 488 kts 89°
2026-05-06 21:44 38.84137 -101.68573 27166 ft 487 kts 88°
2026-05-06 21:45 38.84068 -101.64241 27166 ft 485 kts 88°
2026-05-06 21:45 38.83991 -101.59931 27166 ft 484 kts 88°
2026-05-06 21:45 38.83902 -101.55608 27166 ft 483 kts 88°
2026-05-06 21:45 38.83802 -101.51369 27167 ft 482 kts 89°
2026-05-06 21:46 38.83678 -101.47027 27170 ft 483 kts 89°
2026-05-06 21:46 38.83543 -101.42690 27176 ft 491 kts 88°
2026-05-06 21:46 38.83467 -101.38275 27181 ft 499 kts 88°
2026-05-06 21:46 38.83408 -101.33803 27182 ft 508 kts 89°
2026-05-06 21:47 38.83341 -101.29190 27182 ft 517 kts 89°
2026-05-06 21:47 38.83264 -101.24585 27185 ft 525 kts 89°
2026-05-06 21:47 38.83179 -101.19889 27186 ft 534 kts 89°
2026-05-06 21:47 38.83081 -101.15078 27187 ft 543 kts 89°
2026-05-06 21:48 38.82957 -101.10196 27187 ft 552 kts 89°
2026-05-06 21:48 38.82869 -101.05215 27188 ft 560 kts 89°
2026-05-06 21:48 38.82796 -101.00210 27188 ft 568 kts 89°
2026-05-06 21:48 38.82700 -100.95080 27188 ft 577 kts 89°
2026-05-06 21:49 38.82582 -100.89885 27189 ft 585 kts 89°
2026-05-06 21:49 38.82470 -100.84652 27189 ft 591 kts 89°
2026-05-06 21:49 38.82390 -100.79378 27190 ft 595 kts 88°
2026-05-06 21:49 38.82353 -100.74097 27191 ft 597 kts 88°
2026-05-06 21:50 38.82320 -100.68764 27191 ft 598 kts 88°
2026-05-06 21:50 38.82287 -100.63435 27192 ft 598 kts 88°
2026-05-06 21:50 38.82237 -100.58028 27192 ft 599 kts 88°
2026-05-06 21:50 38.82165 -100.52737 27194 ft 599 kts 88°
2026-05-06 21:51 38.82110 -100.47401 27194 ft 599 kts 88°
2026-05-06 21:51 38.82048 -100.42062 27194 ft 599 kts 88°
2026-05-06 21:51 38.82006 -100.36688 27195 ft 599 kts 88°
2026-05-06 21:51 38.81977 -100.31344 27187 ft 599 kts 89°
2026-05-06 21:52 38.81940 -100.25997 27185 ft 599 kts 88°
2026-05-06 21:52 38.81925 -100.20726 27183 ft 599 kts 88°
2026-05-06 21:52 38.81903 -100.15340 27183 ft 599 kts 88°
2026-05-06 21:52 38.81906 -100.10010 27182 ft 599 kts 88°
2026-05-06 21:53 38.81907 -100.04654 27181 ft 599 kts 88°
2026-05-06 21:53 38.81925 -99.99343 27181 ft 598 kts 87°
2026-05-06 21:53 38.81955 -99.94022 27180 ft 599 kts 87°
2026-05-06 21:53 38.81995 -99.88653 27181 ft 599 kts 87°
2026-05-06 21:54 38.82057 -99.83377 27180 ft 599 kts 87°
2026-05-06 21:54 38.82114 -99.78011 27180 ft 598 kts 86°
2026-05-06 21:54 38.82195 -99.72687 27179 ft 597 kts 86°
2026-05-06 21:54 38.82286 -99.67521 27174 ft 559 kts 85°
2026-05-06 21:55 38.82446 -99.62472 27177 ft 561 kts 84°
2026-05-06 21:55 38.82640 -99.57490 27178 ft 565 kts 84°
2026-05-06 21:55 38.82834 -99.52396 27178 ft 569 kts 84°
2026-05-06 21:55 38.83028 -99.47317 27179 ft 573 kts 83°
2026-05-06 21:56 38.83330 -99.42224 27179 ft 576 kts 82°
2026-05-06 21:56 38.83706 -99.37107 27180 ft 579 kts 81°
2026-05-06 21:56 38.84108 -99.31913 27171 ft 581 kts 82°
2026-05-06 21:56 38.84471 -99.26709 27177 ft 584 kts 85°
2026-05-06 21:57 38.84633 -99.21485 27171 ft 587 kts 86°
2026-05-06 21:57 38.84720 -99.16238 27171 ft 589 kts 86°
2026-05-06 21:57 38.84853 -99.11031 27171 ft 590 kts 85°
2026-05-06 21:57 38.85000 -99.05733 27169 ft 591 kts 85°
2026-05-06 21:58 38.85133 -99.00487 27165 ft 593 kts 85°
2026-05-06 21:58 38.85249 -98.95159 27162 ft 595 kts 86°
2026-05-06 21:58 38.85331 -98.89874 27158 ft 597 kts 86°
2026-05-06 21:58 38.85411 -98.84550 27156 ft 598 kts 86°
2026-05-06 21:59 38.85495 -98.79147 27156 ft 598 kts 86°
2026-05-06 21:59 38.85603 -98.73877 27157 ft 598 kts 85°
2026-05-06 21:59 38.85736 -98.68516 27157 ft 598 kts 85°
2026-05-06 21:59 38.85856 -98.63136 27158 ft 599 kts 85°
2026-05-06 22:00 38.85990 -98.57863 27159 ft 598 kts 84°
2026-05-06 22:00 38.86158 -98.52466 27159 ft 598 kts 84°
2026-05-06 22:00 38.86314 -98.47139 27160 ft 598 kts 85°
2026-05-06 22:00 38.86488 -98.41795 27161 ft 598 kts 84°
2026-05-06 22:01 38.86709 -98.36468 27162 ft 598 kts 83°
2026-05-06 22:01 38.86933 -98.31168 27154 ft 597 kts 84°
2026-05-06 22:01 38.87132 -98.25874 27154 ft 596 kts 84°
2026-05-06 22:01 38.87384 -98.20534 27157 ft 595 kts 83°
2026-05-06 22:02 38.87677 -98.15266 27159 ft 594 kts 83°
2026-05-06 22:02 38.87972 -98.09968 27161 ft 594 kts 83°
2026-05-06 22:02 38.88265 -98.04660 27162 ft 593 kts 83°
2026-05-06 22:02 38.88557 -97.99386 27162 ft 593 kts 83°
2026-05-06 22:03 38.88878 -97.94115 27163 ft 592 kts 82°
2026-05-06 22:03 38.89263 -97.88880 27164 ft 591 kts 81°
2026-05-06 22:03 38.89664 -97.83673 27164 ft 591 kts 81°
2026-05-06 22:03 38.90109 -97.78364 27165 ft 590 kts 79°
2026-05-06 22:04 38.90638 -97.73202 27165 ft 589 kts 78°
2026-05-06 22:04 38.91246 -97.67987 27166 ft 587 kts 76°
2026-05-06 22:04 38.91920 -97.62833 27190 ft 587 kts 82°
2026-05-06 22:04 38.92355 -97.57596 27171 ft 587 kts 78°
2026-05-06 22:05 38.92891 -97.52433 27168 ft 586 kts 78°
2026-05-06 22:05 38.93397 -97.47227 27166 ft 586 kts 79°
2026-05-06 22:05 38.93890 -97.41987 27169 ft 586 kts 78°
2026-05-06 22:05 38.94450 -97.36880 27166 ft 585 kts 76°
2026-05-06 22:06 38.95087 -97.31658 27156 ft 585 kts 77°
2026-05-06 22:06 38.95678 -97.26527 27151 ft 585 kts 77°
2026-05-06 22:06 38.96275 -97.21386 27146 ft 583 kts 76°
2026-05-06 22:06 38.97001 -97.16204 27143 ft 582 kts 74°
2026-05-06 22:07 38.97786 -97.11133 27140 ft 581 kts 74°
2026-05-06 22:07 38.98558 -97.06047 27137 ft 581 kts 74°
2026-05-06 22:07 38.99398 -97.01011 27135 ft 579 kts 72°
2026-05-06 22:07 39.00386 -96.96004 27136 ft 577 kts 69°
2026-05-06 22:08 39.01414 -96.90974 27184 ft 578 kts 78°
2026-05-06 22:08 39.01821 -96.85836 27151 ft 581 kts 80°
2026-05-06 22:08 39.02243 -96.80651 27138 ft 581 kts 79°
2026-05-06 22:08 39.02689 -96.75540 27139 ft 581 kts 79°
2026-05-06 22:09 39.03134 -96.70358 27137 ft 581 kts 79°
2026-05-06 22:09 39.03561 -96.65150 27131 ft 582 kts 79°
2026-05-06 22:09 39.03964 -96.59987 27132 ft 582 kts 80°
2026-05-06 22:09 39.04340 -96.54831 27132 ft 583 kts 79°
2026-05-06 22:10 39.04765 -96.49634 27132 ft 582 kts 79°
2026-05-06 22:10 39.05209 -96.44458 27132 ft 583 kts 79°
2026-05-06 22:10 39.05636 -96.39289 27132 ft 583 kts 79°
2026-05-06 22:10 39.06035 -96.34049 27129 ft 584 kts 80°
2026-05-06 22:11 39.06485 -96.28873 27121 ft 583 kts 79°
2026-05-06 22:11 39.06982 -96.23692 27119 ft 582 kts 78°
2026-05-06 22:11 39.07478 -96.18539 27119 ft 582 kts 78°
2026-05-06 22:11 39.07956 -96.13371 27118 ft 583 kts 79°
2026-05-06 22:12 39.08409 -96.08131 27118 ft 583 kts 79°
2026-05-06 22:12 39.08893 -96.02977 27114 ft 582 kts 78°
2026-05-06 22:12 39.09403 -95.97855 27114 ft 582 kts 78°
2026-05-06 22:12 39.09904 -95.92690 27113 ft 582 kts 79°
2026-05-06 22:13 39.10387 -95.87488 27123 ft 582 kts 78°
2026-05-06 22:13 39.10925 -95.82346 27126 ft 582 kts 77°
2026-05-06 22:13 39.11496 -95.77187 27126 ft 582 kts 77°
2026-05-06 22:13 39.12076 -95.72025 27126 ft 583 kts 77°
2026-05-06 22:14 39.12673 -95.66816 27127 ft 583 kts 77°
2026-05-06 22:14 39.13270 -95.61697 27128 ft 583 kts 77°
2026-05-06 22:14 39.13882 -95.56546 27127 ft 583 kts 76°
2026-05-06 22:14 39.14507 -95.51380 27130 ft 584 kts 76°
2026-05-06 22:15 39.15147 -95.46187 27129 ft 584 kts 76°
2026-05-06 22:15 39.15778 -95.41066 27130 ft 585 kts 76°
2026-05-06 22:15 39.16414 -95.35914 27130 ft 585 kts 76°
2026-05-06 22:15 39.17085 -95.30704 27121 ft 585 kts 76°
2026-05-06 22:16 39.17768 -95.25502 27117 ft 585 kts 75°
2026-05-06 22:16 39.18522 -95.20416 27115 ft 584 kts 74°
2026-05-06 22:16 39.19356 -95.15256 27113 ft 584 kts 73°
2026-05-06 22:16 39.20203 -95.10152 27112 ft 584 kts 73°
2026-05-06 22:17 39.21060 -95.05026 27113 ft 584 kts 73°
2026-05-06 22:17 39.21924 -94.99959 27113 ft 584 kts 72°
2026-05-06 22:17 39.22857 -94.94859 27113 ft 582 kts 71°
2026-05-06 22:17 39.23903 -94.89812 27113 ft 581 kts 70°
2026-05-06 22:18 39.25009 -94.84849 27113 ft 580 kts 69°
2026-05-06 22:18 39.26236 -94.79871 27114 ft 579 kts 68°
2026-05-06 22:18 39.27483 -94.74955 27115 ft 580 kts 68°
2026-05-06 22:18 39.28436 -94.69877 27177 ft 582 kts 82°
2026-05-06 22:19 39.28928 -94.64707 27124 ft 583 kts 79°
2026-05-06 22:19 39.29486 -94.59509 27118 ft 584 kts 79°
2026-05-06 22:19 39.30065 -94.54319 27118 ft 584 kts 79°
2026-05-06 22:19 39.30652 -94.49104 27120 ft 585 kts 78°
2026-05-06 22:20 39.31237 -94.43962 27123 ft 586 kts 78°
2026-05-06 22:20 39.31841 -94.38712 27126 ft 586 kts 78°
2026-05-06 22:20 39.32449 -94.33483 27121 ft 587 kts 79°
2026-05-06 22:20 39.33058 -94.28274 27116 ft 587 kts 79°
2026-05-06 22:21 39.33669 -94.23069 27116 ft 587 kts 79°
2026-05-06 22:21 39.34277 -94.17894 27117 ft 587 kts 79°
2026-05-06 22:21 39.34890 -94.12688 27117 ft 588 kts 79°
2026-05-06 22:21 39.35506 -94.07477 27118 ft 588 kts 79°
2026-05-06 22:22 39.36126 -94.02245 27119 ft 588 kts 78°
2026-05-06 22:22 39.36746 -93.97021 27121 ft 588 kts 78°
2026-05-06 22:22 39.37365 -93.91827 27123 ft 589 kts 78°
2026-05-06 22:22 39.37990 -93.86603 27125 ft 589 kts 78°
2026-05-06 22:23 39.38619 -93.81359 27127 ft 589 kts 78°
2026-05-06 22:23 39.39248 -93.76154 27128 ft 590 kts 78°
2026-05-06 22:23 39.39867 -93.70895 27128 ft 590 kts 78°
2026-05-06 22:23 39.40518 -93.65651 27128 ft 590 kts 77°
2026-05-06 22:24 39.41217 -93.60425 27127 ft 591 kts 77°
2026-05-06 22:24 39.41918 -93.55198 27127 ft 591 kts 77°
2026-05-06 22:24 39.42630 -93.50015 27128 ft 591 kts 76°
2026-05-06 22:24 39.43440 -93.44785 27128 ft 591 kts 75°
2026-05-06 22:25 39.44284 -93.39589 27129 ft 591 kts 74°
2026-05-06 22:25 39.45191 -93.34396 27128 ft 591 kts 74°
2026-05-06 22:25 39.46102 -93.29230 27116 ft 592 kts 75°
2026-05-06 22:25 39.46678 -93.23977 27132 ft 593 kts 82°
2026-05-06 22:26 39.47142 -93.18614 27118 ft 593 kts 81°
2026-05-06 22:26 39.47644 -93.13357 27117 ft 593 kts 80°
2026-05-06 22:26 39.48154 -93.08075 27117 ft 593 kts 81°
2026-05-06 22:26 39.48663 -93.02808 27115 ft 593 kts 81°
2026-05-06 22:27 39.49170 -92.97510 27112 ft 594 kts 81°
2026-05-06 22:27 39.49662 -92.92172 27109 ft 594 kts 82°
2026-05-06 22:27 39.50157 -92.86866 27106 ft 594 kts 81°
2026-05-06 22:27 39.50661 -92.81588 27105 ft 595 kts 81°
2026-05-06 22:28 39.51207 -92.76244 27105 ft 595 kts 80°
2026-05-06 22:28 39.51804 -92.70969 27106 ft 595 kts 79°
2026-05-06 22:28 39.52418 -92.65661 27106 ft 596 kts 79°
2026-05-06 22:28 39.53023 -92.60411 27107 ft 596 kts 79°
2026-05-06 22:29 39.53637 -92.55062 27108 ft 596 kts 79°
2026-05-06 22:29 39.54248 -92.49741 27109 ft 597 kts 79°
2026-05-06 22:29 39.54856 -92.44422 27110 ft 597 kts 79°
2026-05-06 22:29 39.55463 -92.39096 27110 ft 598 kts 79°
2026-05-06 22:30 39.56066 -92.33801 27106 ft 599 kts 80°
2026-05-06 22:30 39.56670 -92.28464 27097 ft 599 kts 80°
2026-05-06 22:30 39.57273 -92.23095 27097 ft 599 kts 80°
2026-05-06 22:30 39.57865 -92.17760 27098 ft 599 kts 81°
2026-05-06 22:31 39.58439 -92.12435 27098 ft 599 kts 81°
2026-05-06 22:31 39.58999 -92.07063 27097 ft 599 kts 81°
2026-05-06 22:31 39.59565 -92.01743 27096 ft 599 kts 81°
2026-05-06 22:31 39.60135 -91.96394 27095 ft 600 kts 80°
2026-05-06 22:32 39.60754 -91.91050 27094 ft 600 kts 79°
2026-05-06 22:32 39.61418 -91.85742 27094 ft 600 kts 79°
2026-05-06 22:32 39.62098 -91.80358 27095 ft 600 kts 79°
2026-05-06 22:32 39.62758 -91.75088 27095 ft 600 kts 79°
2026-05-06 22:33 39.63428 -91.69685 27096 ft 601 kts 79°
2026-05-06 22:33 39.64079 -91.64384 27097 ft 601 kts 78°
2026-05-06 22:33 39.64815 -91.58971 27098 ft 601 kts 77°
2026-05-06 22:33 39.65573 -91.53642 27099 ft 601 kts 77°
2026-05-06 22:34 39.66342 -91.48350 27100 ft 601 kts 77°
2026-05-06 22:34 39.67098 -91.42992 27112 ft 602 kts 81°
2026-05-06 22:34 39.67594 -91.37609 27104 ft 603 kts 81°
2026-05-06 22:34 39.68096 -91.32197 27091 ft 603 kts 82°
2026-05-06 22:35 39.68597 -91.26811 27088 ft 603 kts 81°
2026-05-06 22:35 39.69174 -91.21406 27087 ft 603 kts 80°
2026-05-06 22:35 39.69787 -91.16046 27087 ft 603 kts 80°
2026-05-06 22:35 39.70406 -91.10635 27087 ft 603 kts 80°
2026-05-06 22:36 39.70972 -91.05292 27088 ft 603 kts 82°
2026-05-06 22:36 39.71410 -90.99854 27088 ft 604 kts 83°
2026-05-06 22:36 39.71847 -90.94441 27088 ft 604 kts 82°
2026-05-06 22:36 39.72308 -90.88946 27089 ft 604 kts 83°
2026-05-06 22:37 39.72743 -90.83539 27091 ft 604 kts 83°
2026-05-06 22:37 39.73159 -90.78092 27093 ft 604 kts 83°
2026-05-06 22:37 39.73578 -90.72678 27095 ft 604 kts 83°
2026-05-06 22:37 39.74003 -90.67224 27096 ft 604 kts 83°
2026-05-06 22:38 39.74466 -90.61760 27097 ft 604 kts 82°
2026-05-06 22:38 39.74966 -90.56344 27098 ft 604 kts 81°
2026-05-06 22:38 39.75467 -90.50931 27099 ft 605 kts 82°
2026-05-06 22:38 39.75962 -90.45489 27100 ft 605 kts 82°
2026-05-06 22:39 39.76446 -90.40028 27098 ft 606 kts 82°
2026-05-06 22:39 39.76896 -90.34593 27090 ft 606 kts 83°
2026-05-06 22:39 39.77344 -90.29085 27071 ft 606 kts 83°
2026-05-06 22:39 39.77794 -90.23631 27070 ft 606 kts 83°
2026-05-06 22:40 39.78274 -90.18173 27070 ft 606 kts 81°
2026-05-06 22:40 39.78811 -90.12740 27071 ft 606 kts 81°
2026-05-06 22:40 39.79357 -90.07372 27072 ft 606 kts 81°
2026-05-06 22:40 39.79901 -90.01939 27072 ft 605 kts 81°
2026-05-06 22:41 39.81002 -89.90980 27072 ft 606 kts 81°
2026-05-06 22:41 39.81549 -89.85600 27071 ft 605 kts 80°
2026-05-06 22:41 39.82179 -89.80200 27070 ft 605 kts 79°
2026-05-06 22:42 39.82865 -89.74715 27068 ft 605 kts 78°
2026-05-06 22:42 39.83536 -89.69370 27069 ft 606 kts 79°
2026-05-06 22:42 39.83775 -89.63864 27107 ft 605 kts 90°
2026-05-06 22:42 39.83759 -89.58353 27074 ft 605 kts 89°
2026-05-06 22:43 39.83794 -89.52904 27071 ft 605 kts 88°
2026-05-06 22:43 39.83839 -89.47420 27073 ft 606 kts 89°
2026-05-06 22:43 39.83872 -89.41883 27075 ft 606 kts 89°
2026-05-06 22:43 39.83891 -89.36430 27078 ft 606 kts 89°
2026-05-06 22:44 39.83901 -89.30922 27069 ft 607 kts 90°
2026-05-06 22:44 39.83915 -89.25364 27068 ft 606 kts 89°
2026-05-06 22:44 39.83923 -89.19887 27066 ft 606 kts 89°
2026-05-06 22:44 39.83927 -89.14408 27062 ft 606 kts 90°
2026-05-06 22:45 39.83919 -89.08901 27059 ft 607 kts 90°
2026-05-06 22:45 39.83881 -89.03439 27056 ft 607 kts 90°
2026-05-06 22:45 39.83901 -88.97898 27056 ft 607 kts 89°
2026-05-06 22:45 39.83961 -88.92396 27055 ft 607 kts 89°
2026-05-06 22:46 39.83962 -88.86897 27056 ft 607 kts 90°
2026-05-06 22:46 39.83966 -88.81467 27059 ft 607 kts 90°
2026-05-06 22:46 39.84030 -88.75930 27057 ft 607 kts 89°
2026-05-06 22:46 39.84121 -88.70473 27060 ft 607 kts 89°
2026-05-06 22:47 39.84194 -88.64928 27061 ft 607 kts 89°
2026-05-06 22:47 39.84255 -88.59464 27055 ft 607 kts 89°
2026-05-06 22:47 39.84260 -88.53931 27059 ft 607 kts 91°
2026-05-06 22:47 39.84210 -88.48437 27064 ft 607 kts 91°
2026-05-06 22:48 39.84151 -88.42924 27067 ft 608 kts 90°
2026-05-06 22:48 39.84170 -88.37399 27063 ft 608 kts 89°
2026-05-06 22:48 39.84135 -88.31873 27059 ft 608 kts 92°
2026-05-06 22:48 39.84052 -88.26421 27053 ft 608 kts 91°
2026-05-06 22:49 39.84039 -88.20935 27054 ft 608 kts 89°
2026-05-06 22:49 39.84058 -88.15368 27053 ft 608 kts 91°
2026-05-06 22:49 39.84007 -88.09871 27056 ft 608 kts 91°
2026-05-06 22:49 39.83996 -88.04386 27059 ft 608 kts 90°
2026-05-06 22:50 39.83999 -87.98924 27060 ft 608 kts 90°
2026-05-06 22:50 39.83985 -87.93408 27055 ft 608 kts 90°
2026-05-06 22:50 39.83992 -87.87918 27054 ft 608 kts 90°
2026-05-06 22:50 39.83997 -87.82399 27057 ft 608 kts 90°
2026-05-06 22:51 39.83968 -87.76896 27061 ft 608 kts 91°
2026-05-06 22:51 39.83934 -87.71458 27067 ft 608 kts 91°
2026-05-06 22:51 39.83904 -87.65963 27055 ft 608 kts 90°
2026-05-06 22:51 39.83911 -87.60465 27061 ft 608 kts 90°
2026-05-06 22:52 39.83875 -87.54958 27056 ft 608 kts 91°
2026-05-06 22:52 39.83791 -87.49423 27071 ft 609 kts 91°
2026-05-06 22:52 39.83783 -87.43971 27066 ft 609 kts 90°
2026-05-06 22:52 39.83762 -87.38443 27061 ft 609 kts 91°
2026-05-06 22:53 39.83688 -87.32868 27050 ft 609 kts 92°
2026-05-06 22:53 39.83636 -87.27354 27038 ft 608 kts 91°
2026-05-06 22:53 39.83585 -87.21906 27038 ft 608 kts 91°
2026-05-06 22:53 39.83473 -87.16373 27034 ft 608 kts 92°
2026-05-06 22:54 39.83431 -87.10861 27035 ft 608 kts 91°
2026-05-06 22:54 39.83387 -87.05418 27038 ft 607 kts 92°
2026-05-06 22:54 39.83260 -86.99876 27037 ft 606 kts 92°
2026-05-06 22:54 39.83191 -86.94443 27040 ft 605 kts 91°
2026-05-06 22:55 39.83123 -86.88945 27035 ft 602 kts 92°
2026-05-06 22:55 39.83001 -86.83546 27037 ft 601 kts 92°
2026-05-06 22:55 39.82873 -86.78117 27036 ft 600 kts 93°
2026-05-06 22:55 39.82716 -86.72646 27040 ft 600 kts 93°
2026-05-06 22:56 39.82571 -86.67242 27042 ft 600 kts 92°
2026-05-06 22:56 39.82463 -86.61800 27043 ft 600 kts 92°
2026-05-06 22:56 39.82362 -86.56334 27045 ft 600 kts 92°
2026-05-06 22:56 39.82224 -86.50924 27043 ft 600 kts 93°
2026-05-06 22:57 39.82055 -86.45440 27041 ft 600 kts 94°
2026-05-06 22:57 39.81795 -86.40029 27039 ft 600 kts 95°
2026-05-06 22:57 39.81669 -86.34723 27086 ft 598 kts 86°
2026-05-06 22:57 39.81983 -86.29276 27032 ft 599 kts 85°
2026-05-06 22:58 39.82377 -86.23898 27027 ft 599 kts 85°
2026-05-06 22:58 39.82701 -86.18443 27027 ft 599 kts 86°
2026-05-06 22:58 39.83035 -86.13029 27024 ft 599 kts 85°
2026-05-06 22:58 39.83389 -86.07614 27026 ft 599 kts 85°
2026-05-06 22:59 39.83734 -86.02226 27024 ft 599 kts 86°
2026-05-06 22:59 39.84066 -85.96812 27024 ft 599 kts 86°
2026-05-06 22:59 39.84403 -85.91433 27022 ft 599 kts 86°
2026-05-06 22:59 39.84733 -85.86061 27020 ft 599 kts 86°
2026-05-06 23:00 39.85059 -85.80593 27023 ft 600 kts 86°
2026-05-06 23:00 39.85385 -85.75148 27021 ft 600 kts 86°
2026-05-06 23:00 39.85686 -85.69725 27022 ft 600 kts 86°
2026-05-06 23:00 39.85965 -85.64287 27025 ft 600 kts 86°
2026-05-06 23:01 39.86245 -85.58880 27027 ft 600 kts 86°
2026-05-06 23:01 39.86513 -85.53468 27026 ft 601 kts 86°
2026-05-06 23:01 39.86824 -85.48009 27027 ft 601 kts 85°
2026-05-06 23:01 39.87164 -85.42647 27027 ft 601 kts 85°
2026-05-06 23:02 39.87515 -85.37173 27029 ft 601 kts 85°
2026-05-06 23:02 39.87852 -85.31744 27016 ft 601 kts 86°
2026-05-06 23:02 39.88177 -85.26298 27017 ft 601 kts 86°
2026-05-06 23:02 39.88485 -85.20897 27020 ft 601 kts 86°
2026-05-06 23:03 39.88782 -85.15444 27019 ft 600 kts 86°
2026-05-06 23:03 39.89062 -85.10043 27024 ft 596 kts 87°
2026-05-06 23:03 39.89331 -85.04615 27027 ft 592 kts 87°
2026-05-06 23:03 39.89584 -84.99341 27032 ft 587 kts 87°
2026-05-06 23:04 39.89827 -84.93977 27036 ft 582 kts 87°
2026-05-06 23:04 39.90049 -84.88731 27036 ft 580 kts 87°
2026-05-06 23:04 39.90257 -84.83515 27039 ft 579 kts 88°
2026-05-06 23:04 39.90453 -84.78241 27039 ft 579 kts 88°
2026-05-06 23:05 39.90621 -84.72986 27038 ft 579 kts 89°
2026-05-06 23:05 39.90676 -84.67744 27040 ft 578 kts 91°
2026-05-06 23:05 39.90688 -84.62512 27064 ft 577 kts 86°
2026-05-06 23:05 39.90929 -84.57281 27037 ft 578 kts 86°
2026-05-06 23:06 39.91231 -84.52026 27026 ft 578 kts 86°
2026-05-06 23:06 39.91515 -84.46781 27019 ft 578 kts 86°
2026-05-06 23:06 39.91769 -84.41595 27021 ft 578 kts 86°
2026-05-06 23:06 39.92012 -84.36372 27022 ft 578 kts 87°
2026-05-06 23:07 39.92241 -84.31108 27017 ft 578 kts 88°
2026-05-06 23:07 39.92455 -84.25837 27016 ft 578 kts 88°
2026-05-06 23:07 39.92694 -84.20578 27017 ft 578 kts 87°
2026-05-06 23:07 39.92956 -84.15386 27016 ft 578 kts 87°
2026-05-06 23:08 39.93213 -84.10139 27014 ft 578 kts 87°
2026-05-06 23:08 39.93447 -84.04881 27013 ft 578 kts 88°
2026-05-06 23:08 39.93651 -83.99684 27012 ft 578 kts 88°
2026-05-06 23:08 39.93859 -83.94456 27012 ft 578 kts 88°
2026-05-06 23:09 39.94056 -83.89209 27015 ft 578 kts 88°
2026-05-06 23:09 39.94261 -83.83935 27017 ft 578 kts 87°
2026-05-06 23:09 39.94516 -83.78760 27018 ft 579 kts 86°
2026-05-06 23:09 39.94735 -83.73516 27019 ft 578 kts 88°
2026-05-06 23:10 39.94894 -83.68278 27025 ft 578 kts 88°
2026-05-06 23:10 39.95060 -83.62974 27025 ft 579 kts 87°
2026-05-06 23:10 39.95285 -83.57790 27031 ft 579 kts 86°
2026-05-06 23:10 39.95528 -83.52509 27033 ft 579 kts 87°
2026-05-06 23:11 39.95747 -83.47265 27031 ft 579 kts 87°
2026-05-06 23:11 39.95947 -83.42064 27031 ft 579 kts 87°